Flag for United Kingdom Weather past 2 weeks in Milton Keynes, England, United Kingdom

Now
82 °F

Sunny.


Feels Like: 82 °F
Forecast: 60 / 73 °F
Wind: 3 mph from North

Location: Cranfield

Current Time: Jul 26, 2014 at 6:47:52 PM

Latest Report: Jul 26, 2014 at 4:50 PM


Visibility: 10 mi

Pressure: 29.98 "Hg

Humidity: 40%

Dew point: 55 °F

Location of Milton KeynesLocation

Historic Weather in Milton Keynes — Graph

°F

Milton Keynes temperature yesterday

Maximum temperature yesterday: 81 °F (at 2:20 PM)
Minimum temperature yesterday: 63 °F (at 8:50 AM)
Average temperature yesterday: 75 °F

Past Weeks' High & Low Weather Summary

 TemperatureHumidityPressure
High84 °F (Jul 18, 2:50 PM)100% (Jul 12, 7:20 AM)30.24 "Hg (Jul 12, 7:20 AM)
Low55 °F (Jul 22, 7:50 AM)37% (Jul 26, 3:50 PM)29.71 "Hg (Jul 13, 10:20 AM)
Average73 °F70%30.00 "Hg
* Reported Jul 11 4:20 PM — Jul 26 4:50 PM, Milton Keynes, Weather by CustomWeather, © 2014

Note: Actual official high and low records may vary slightly from our data, if they occured in-between our weather recording intervals... More about our weather records

Advertising

Milton Keynes weather history for previous 24 hours

 ConditionsComfort  
Time TempWeatherWind HumidityBarometerVisibility
4:50 PM
Jul 26
82 °FSunny.3 mph40%29.98 "Hg10 mi
4:20 PM82 °FSunny.5 mph37%30.01 "Hg10 mi
3:50 PM82 °FSunny.3 mph37%30.01 "Hg10 mi
3:20 PM81 °FPassing clouds.6 mph42%30.01 "HgN/A
2:50 PM81 °FPassing clouds.8 mph39%30.01 "HgN/A
2:20 PM81 °FPassing clouds.7 mph42%30.01 "HgN/A
1:50 PM81 °FPassing clouds.7 mph45%30.01 "HgN/A
12:50 PM77 °FPassing clouds.8 mph54%30.04 "HgN/A
12:20 PM75 °FPassing clouds.7 mph57%30.04 "HgN/A
11:50 AM75 °FPassing clouds.6 mph57%30.04 "HgN/A
11:20 AM77 °FPassing clouds.10 mph51%30.04 "HgN/A
10:50 AM75 °FPassing clouds.9 mph57%30.04 "HgN/A
10:20 AM73 °FPassing clouds.8 mph61%30.04 "HgN/A
9:50 AM72 °FPassing clouds.7 mph69%30.04 "HgN/A
8:50 AM66 °FPassing clouds.9 mph83%30.04 "HgN/A
8:20 AM66 °FPassing clouds.7 mph83%30.04 "HgN/A
Weather by CustomWeather, © 2014

See weather overviewHow to use our weather pages